Overview Statistics Trail Chart Weather Telemetry Raw packets
 

This is the latest recevied weather packets stored in our database for station/object KB9HUO. If no packets are shown the sender has not sent any weather packets the latest 10 day(s).

<< 45 46 47 48 49 50 51 >>
Time Temp. Humidity Pressure Rain* Wind** Luminosity Snow
1788363803 32.78° C 61% 1020 hPa 0 mm - 585 W/m² -
1788363501 32.78° C 61% 1019.8 hPa 0 mm - 574 W/m² -
1788363201 32.22° C 63% 1019.8 hPa 0 mm - 563 W/m² -
1788362897 32.78° C 62% 1019.8 hPa 0 mm - 552 W/m² -
1788362593 32.22° C 64% 1019.8 hPa 0 mm - 494 W/m² -
1788362288 32.22° C 64% 1020 hPa 0 mm - 168 W/m² -
1788361983 31.67° C 68% 1019.7 hPa 0 mm - 102 W/m² -
1788361678 31.67° C 66% 1019.8 hPa 0 mm - 197 W/m² -
1788361374 31.67° C 67% 1020.1 hPa 0 mm - 230 W/m² -
1788361073 31.11° C 67% 1019.8 hPa 0 mm - 205 W/m² -
1788360769 31.11° C 68% 1019.8 hPa 0 mm - 128 W/m² -
1788360464 30.56° C 69% 1019.8 hPa 0 mm - 58 W/m² -
1788360160 30.56° C 71% 1019.8 hPa 0 mm - 56 W/m² -
1788359860 30.56° C 73% 1019.8 hPa 0 mm - 54 W/m² -
1788359555 30° C 73% 1019.8 hPa 0 mm - 53 W/m² -
1788359251 30° C 72% 1019.8 hPa 0 mm - 60 W/m² -
1788358947 29.44° C 75% 1019.8 hPa 0 mm - 52 W/m² -
1788358641 29.44° C 74% 1020 hPa 0 mm - 51 W/m² -
1788358337 29.44° C 75% 1020.2 hPa 0 mm - 50 W/m² -
1788358032 28.89° C 77% 1019.8 hPa 0 mm - 50 W/m² -
1788357732 28.89° C 78% 1020.1 hPa 0 mm - 49 W/m² -
1788357431 28.33° C 79% 1020.2 hPa 0 mm - 48 W/m² -
1788357127 28.33° C 80% 1020.1 hPa 0 mm - 51 W/m² -
1788356827 27.78° C 80% 1020.1 hPa 0 mm - 45 W/m² -
1788356522 27.78° C 83% 1020.3 hPa 0 mm - 45 W/m² -

* Rain latest hour (hover to see other rain measurements)
** Current wind speed in m/s (hover to see current wind gust speed)